FW7817 Weather Reports


Display with metric or nautical units.
time (UTC)temp
F
wind
direction
speed
MPH
gust
MPH
rain 1hr
in
rain 24hr
in
rain mn
in
humidity
%
barometer
mb
20240521101009 72 92 7.0 19.0 0.00 0.00 0.00 85 1001.6
20240521100504 72 161 7.0 14.0 0.00 0.00 0.00 85 1001.7
20240521095958 72 146 6.0 14.0 0.00 0.00 0.00 85 1002.0
20240521095452 72 128 6.0 20.0 0.00 0.00 0.00 85 1002.0
20240521094946 72 167 6.0 20.0 0.00 0.00 0.00 85 1002.2
20240521094439 72 132 6.0 13.0 0.00 0.00 0.00 85 1002.4
20240521093935 72 172 7.0 17.0 0.00 0.00 0.00 85 1002.7
20240521093427 72 183 6.0 17.0 0.00 0.00 0.00 85 1002.8
20240521092921 72 142 6.0 18.0 0.00 0.00 0.00 85 1002.9
20240521092416 72 157 6.0 15.0 0.00 0.00 0.00 85 1002.9
20240521091910 72 142 6.0 13.0 0.00 0.00 0.00 85 1003.0
20240521091404 73 175 7.0 16.0 0.00 0.00 0.00 85 1003.0
20240521090858 73 158 6.0 16.0 0.00 0.00 0.00 85 1003.1
20240521090351 73 173 6.0 14.0 0.00 0.00 0.00 85 1003.2
20240521085851 73 163 5.0 13.0 0.00 0.00 0.00 85 1003.3
20240521085350 73 170 5.0 13.0 0.00 0.00 0.00 85 1003.6
20240521084850 73 119 5.0 12.0 0.00 0.00 0.00 85 1003.7
20240521084350 73 172 4.0 10.0 0.00 0.00 0.00 85 1003.7
20240521083850 73 148 4.0 10.0 0.00 0.00 0.00 85 1003.8
20240521083350 73 157 4.0 10.0 0.00 0.00 0.00 85 1003.9
20240521082850 73 123 4.0 12.0 0.00 0.00 0.00 85 1003.9
20240521082349 73 154 4.0 12.0 0.00 0.00 0.00 86 1004.0
20240521081849 73 159 4.0 12.0 0.00 0.00 0.00 86 1004.0
20240521081350 73 132 4.0 14.0 0.00 0.00 0.00 86 1004.0
20240521080349 73 186 4.0 10.0 0.00 0.00 0.00 86 1004.2
20240521075849 73 169 4.0 10.0 0.00 0.00 0.00 85 1004.2
20240521075351 73 115 4.0 10.0 0.00 0.00 0.00 85 1004.4
20240521074846 73 138 4.0 9.0 0.00 0.00 0.00 85 1004.3
20240521074345 73 167 4.0 11.0 0.00 0.00 0.00 85 1004.5
20240521073845 73 149 4.0 11.0 0.00 0.00 0.00 85 1004.6
20240521073345 73 137 4.0 11.0 0.00 0.00 0.00 85 1004.7
20240521071846 74 159 4.0 11.0 0.00 0.00 0.00 84 1005.1
20240521071345 74 160 5.0 11.0 0.00 0.00 0.00 84 1005.3
20240521070845 74 128 5.0 10.0 0.00 0.00 0.00 84 1005.4
20240521065846 74 128 4.0 10.0 0.00 0.00 0.00 84 1005.5
20240521065346 74 146 4.0 12.0 0.00 0.00 0.00 84 1005.7
20240521064846 74 155 4.0 12.0 0.00 0.00 0.00 84 1005.8
20240521063847 74 138 5.0 13.0 0.00 0.00 0.00 84 1005.8
20240521062845 75 132 5.0 12.0 0.00 0.00 0.00 83 1006.0
20240521062346 75 173 5.0 12.0 0.00 0.00 0.00 84 1006.0
20240521061845 75 170 5.0 11.0 0.00 0.00 0.00 84 1006.2
20240521060347 75 115 4.0 10.0 0.00 0.00 0.00 84 1006.4
20240521055344 75 160 4.0 11.0 0.00 0.00 0.00 84 1006.4
20240521054841 74 165 4.0 11.0 0.00 0.00 0.00 84 1006.4
20240521054340 74 143 4.0 9.0 0.00 0.00 0.00 84 1006.4
20240521053842 74 171 4.0 10.0 0.00 0.00 0.00 84 1006.5
20240521053339 74 144 4.0 10.0 0.00 0.00 0.00 84 1006.5
20240521052840 74 164 4.0 11.0 0.00 0.00 0.00 84 1006.5
20240521052337 74 167 5.0 11.0 0.00 0.00 0.00 84 1006.3
20240521051837 74 155 6.0 11.0 0.00 0.00 0.00 85 1006.3
20240521051337 74 108 5.0 11.0 0.00 0.01 0.00 85 1006.2
20240521050837 74 146 5.0 9.0 0.00 0.03 0.00 85 1006.2
20240521050331 74 146 5.0 12.0 0.00 0.04 0.00 85 1006.4
20240521045826 74 158 5.0 12.0 0.00 0.06 0.06 86 1006.5
20240521045320 74 171 5.0 9.0 0.00 0.07 0.06 86 1006.5
20240521044814 74 140 5.0 10.0 0.00 0.09 0.06 86 1006.5
20240521044308 75 181 5.0 11.0 0.00 0.11 0.06 86 1006.7
20240521043802 75 162 4.0 11.0 0.00 0.13 0.06 85 1006.7
20240521043255 75 176 4.0 11.0 0.00 0.15 0.06 85 1006.8
20240521042750 75 168 4.0 11.0 0.00 0.16 0.06 85 1006.8
20240521042244 75 180 4.0 12.0 0.00 0.17 0.06 85 1007.0
20240521041737 75 140 4.0 12.0 0.00 0.18 0.06 84 1007.1
20240521041232 75 147 4.0 9.0 0.00 0.21 0.06 84 1007.2
20240521040726 75 127 4.0 9.0 0.00 0.26 0.06 84 1007.3
20240521040225 75 146 3.0 8.0 0.00 0.39 0.06 84 1007.5
20240521035714 75 172 3.0 8.0 0.00 0.50 0.06 84 1007.6
20240521035208 76 147 3.0 9.0 0.00 0.66 0.06 84 1007.7
20240521034156 76 145 2.0 8.0 0.00 0.81 0.06 84 1007.9
20240521033144 76 165 2.0 6.0 0.00 0.91 0.06 83 1007.9
20240521032637 76 145 1.0 5.0 0.00 0.95 0.06 83 1007.8
20240521031626 76 140 2.0 6.0 0.00 1.14 0.06 82 1007.8
20240521031119 76 130 2.0 7.0 0.00 1.77 0.06 82 1007.8
20240521030614 76 122 2.0 7.0 0.00 2.12 0.06 82 1007.9
20240521030108 76 164 3.0 7.0 0.00 2.18 0.06 81 1007.9
20240521025602 76 167 3.0 7.0 0.00 2.21 0.06 81 1007.9
20240521025055 76 101 3.0 8.0 0.00 2.23 0.06 81 1007.9
20240521024052 77 161 3.0 7.0 0.00 2.31 0.06 80 1007.8
20240521023552 77 126 3.0 8.0 0.00 2.32 0.06 79 1007.8
20240521023050 77 147 3.0 8.0 0.00 2.32 0.06 79 1007.8
20240521022550 77 138 2.0 7.0 0.00 2.33 0.06 78 1007.7
20240521021550 77 153 2.0 6.0 0.00 2.33 0.06 78 1007.8
20240521021047 77 152 3.0 6.0 0.00 2.33 0.06 78 1007.8
20240521020047 77 171 2.0 6.0 0.00 2.34 0.06 77 1007.8
20240521015547 78 146 2.0 4.0 0.00 2.34 0.06 77 1007.8
20240521015048 78 159 2.0 5.0 0.00 2.34 0.06 77 1007.8
20240521014548 78 167 2.0 6.0 0.00 2.34 0.06 77 1007.9
20240521014048 78 158 2.0 6.0 0.00 2.34 0.06 76 1007.9
20240521013544 78 123 2.0 6.0 0.00 2.34 0.06 76 1007.9
20240521013043 78 138 1.0 4.0 0.00 2.34 0.06 76 1007.9
20240521012544 78 127 1.0 4.0 0.00 2.34 0.06 75 1007.9
20240521011543 79 173 1.0 7.0 0.00 2.34 0.06 75 1008.0
20240521011043 79 159 1.0 5.0 0.00 2.34 0.06 74 1008.0
20240521010043 79 142 2.0 6.0 0.00 2.34 0.06 74 1007.9
20240521005543 79 157 3.0 7.0 0.00 2.34 0.06 74 1007.9
20240521005044 79 147 2.0 7.0 0.00 2.34 0.06 73 1008.0
20240521004545 79 163 2.0 6.0 0.00 2.34 0.06 73 1008.1
20240521004043 80 163 2.0 6.0 0.00 2.34 0.06 73 1008.1
20240521003543 80 162 2.0 8.0 0.00 2.34 0.06 73 1008.2
20240521003044 80 171 3.0 8.0 0.00 2.34 0.06 73 1008.0
20240521002043 80 119 3.0 7.0 0.00 2.34 0.06 73 1008.0
20240521001541 80 156 3.0 10.0 0.00 2.34 0.06 72 1008.1
20240520235523 80 185 1.0 7.0 0.00 2.34 0.06 72 1008.4
20240520235016 80 167 2.0 5.0 0.00 2.34 0.06 73 1008.4
20240520234009 80 164 3.0 9.0 0.00 2.34 0.06 73 1008.6
20240520233509 80 175 2.0 9.0 0.00 2.34 0.06 73 1008.7
20240520232505 81 153 3.0 11.0 0.00 2.34 0.06 72 1008.5
20240520232003 81 127 3.0 9.0 0.00 2.34 0.06 71 1008.4
20240520231006 82 157 4.0 10.0 0.00 2.34 0.06 70 1008.4
20240520230503 82 143 5.0 12.0 0.00 2.34 0.06 70 1008.5
20240520230000 82 159 6.0 12.0 0.00 2.34 0.06 70 1008.6
20240520225500 82 149 5.0 10.0 0.00 2.34 0.06 70 1008.5
20240520224959 82 163 4.0 10.0 0.00 2.34 0.06 70 1008.5
20240520224459 82 156 3.0 8.0 0.00 2.34 0.06 71 1008.4
20240520224001 82 140 3.0 10.0 0.00 2.34 0.06 72 1008.5
20240520223501 81 144 3.0 10.0 0.00 2.34 0.06 72 1008.5
20240520222959 81 162 3.0 10.0 0.00 2.34 0.06 71 1008.6
20240520222459 82 158 4.0 10.0 0.00 2.34 0.06 70 1008.7
20240520221959 82 134 3.0 10.0 0.00 2.34 0.06 70 1008.6
20240520221502 82 159 3.0 10.0 0.00 2.34 0.06 71 1008.7
20240520220955 82 146 3.0 8.0 0.00 2.34 0.06 71 1008.7
20240520220447 81 149 4.0 10.0 0.00 2.34 0.06 71 1008.9
20240520215436 81 140 3.0 8.0 0.00 2.34 0.06 71 1009.0
20240520214929 81 208 3.0 7.0 0.00 2.34 0.06 72 1009.1
20240520214424 81 172 3.0 8.0 0.00 2.34 0.06 71 1009.1
20240520213917 80 148 3.0 8.0 0.00 2.34 0.06 73 1009.2
20240520212905 80 148 3.0 7.0 0.00 2.34 0.06 73 1009.3
20240520212400 80 134 3.0 7.0 0.00 2.34 0.06 72 1009.5
20240520211854 80 112 3.0 8.0 0.00 2.34 0.06 72 1009.5
20240520211348 80 142 3.0 8.0 0.00 2.34 0.06 72 1009.5
20240520210841 80 145 3.0 7.0 0.00 2.34 0.06 71 1009.5
20240520210335 80 161 3.0 7.0 0.00 2.34 0.06 71 1009.6
20240520205323 80 158 2.0 7.0 0.00 2.34 0.06 71 1009.6
20240520204817 80 172 1.0 7.0 0.00 2.34 0.06 71 1009.7
20240520204312 80 184 2.0 6.0 0.00 2.34 0.06 71 1009.8
20240520203805 80 162 3.0 6.0 0.00 2.34 0.06 71 1009.8
20240520203301 80 165 2.0 6.0 0.00 2.34 0.06 71 1009.8
20240520202750 80 138 2.0 7.0 0.00 2.34 0.06 70 1010.0
20240520202252 81 156 3.0 8.0 0.00 2.34 0.06 69 1010.0
20240520201737 81 152 3.0 9.0 0.00 2.34 0.06 68 1010.0
20240520201231 81 141 4.0 9.0 0.00 2.34 0.06 69 1010.1
20240520200726 81 138 3.0 10.0 0.00 2.34 0.06 68 1010.1
20240520200219 81 105 3.0 12.0 0.00 2.34 0.06 71 1010.3
20240520195714 80 187 3.0 12.0 0.00 2.34 0.06 68 1010.3
20240520195207 81 176 2.0 9.0 0.00 2.34 0.06 67 1010.3
20240520194701 81 155 1.0 6.0 0.00 2.34 0.06 69 1010.3
20240520194156 80 167 2.0 8.0 0.00 2.34 0.06 69 1010.4
20240520193651 80 148 3.0 8.0 0.00 2.34 0.06 69 1010.6
20240520193144 80 103 3.0 7.0 0.00 2.34 0.06 69 1010.5
20240520192637 80 157 3.0 8.0 0.00 2.34 0.06 68 1010.7
20240520192131 80 153 2.0 8.0 0.00 2.34 0.06 68 1010.7
20240520191626 81 136 3.0 9.0 0.00 2.34 0.06 67 1010.8
20240520191119 80 157 2.0 9.0 0.00 2.34 0.06 66 1010.7
20240520190613 80 153 2.0 8.0 0.00 2.34 0.06 67 1010.8
20240520190108 80 171 2.0 8.0 0.00 2.34 0.06 69 1010.9
20240520184549 80 133 3.0 8.0 0.00 2.34 0.06 68 1010.9
20240520184044 80 115 2.0 8.0 0.00 2.34 0.06 67 1011.0
20240520183539 80 182 2.0 8.0 0.00 2.34 0.06 69 1011.0
20240520183031 80 173 4.0 10.0 0.00 2.34 0.06 68 1011.2
20240520182526 80 142 4.0 10.0 0.00 2.34 0.06 66 1011.2
20240520182025 80 109 3.0 10.0 0.00 2.34 0.06 69 1011.2
20240520181525 80 157 3.0 8.0 0.00 2.34 0.06 65 1011.3
20240520181025 80 146 3.0 8.0 0.00 2.34 0.06 65 1011.3
20240520180525 80 155 3.0 8.0 0.00 2.34 0.06 65 1011.4
20240520180023 80 134 2.0 8.0 0.00 2.34 0.06 66 1011.4
20240520175522 80 142 3.0 7.0 0.00 2.34 0.06 67 1011.4
20240520175022 80 177 3.0 10.0 0.00 2.34 0.06 64 1011.4
20240520174522 80 161 3.0 10.0 0.00 2.34 0.06 65 1011.4
20240520172523 77 111 3.0 10.0 0.00 2.34 0.06 69 1011.4
20240520172024 78 134 3.0 10.0 0.00 2.34 0.06 63 1011.5
20240520171021 78 170 3.0 8.0 0.00 2.34 0.06 66 1011.5
20240520170521 77 163 3.0 6.0 0.00 2.34 0.06 70 1011.5
20240520170021 76 165 2.0 6.0 0.00 2.34 0.06 71 1011.4
20240520165522 75 146 3.0 6.0 0.00 2.34 0.06 73 1011.5
20240520164521 75 145 1.0 3.0 0.00 2.34 0.06 74 1011.5
20240520162017 75 135 2.0 4.0 0.00 2.34 0.06 73 1011.5
20240520161516 75 136 1.0 4.0 0.00 2.34 0.06 74 1011.5
20240520160018 75 136 2.0 6.0 0.00 2.34 0.06 73 1011.5
20240520155516 75 132 2.0 6.0 0.00 2.34 0.06 73 1011.5
20240520155017 75 178 2.0 7.0 0.00 2.34 0.06 75 1011.5
20240520154516 75 192 2.0 7.0 0.00 2.34 0.06 74 1011.3
20240520154016 75 151 1.0 7.0 0.00 2.34 0.06 75 1011.5
20240520153517 75 182 1.0 3.0 0.00 2.34 0.06 77 1011.5
20240520152516 74 186 1.0 4.0 0.00 2.34 0.06 77 1011.7
20240520152017 74 158 1.0 5.0 0.00 2.34 0.06 79 1011.7
20240520150511 74 167 1.0 4.0 0.00 2.34 0.06 78 1011.7
20240520150009 74 166 1.0 4.0 0.00 2.34 0.06 77 1011.8
20240520145507 74 180 0.0 2.0 0.00 2.34 0.06 78 1011.8
20240520145004 73 207 0.0 2.0 0.00 2.34 0.06 77 1011.5
20240520144504 73 207 0.0 2.0 0.00 2.34 0.06 78 1011.5
20240520144004 73 208 1.0 3.0 0.00 2.34 0.06 78 1011.4
20240520143504 73 211 1.0 4.0 0.00 2.34 0.06 81 1011.5
20240520142504 72 161 0.0 3.0 0.00 2.34 0.06 83 1011.3
20240520141958 72 192 0.0 1.0 0.00 2.34 0.06 83 1011.3
20240520140945 72 192 0.0 2.0 0.00 2.34 0.06 84 1011.3
20240520140440 72 192 0.0 2.0 0.00 2.34 0.06 83 1011.4
20240520135933 72 194 0.0 3.0 0.00 2.34 0.06 87 1011.2
20240520135427 71 194 0.0 3.0 0.00 2.34 0.06 89 1011.3
20240520134922 71 192 0.0 2.0 0.00 2.34 0.06 89 1011.2
20240520134416 70 192 1.0 2.0 0.00 2.34 0.06 90 1011.2
20240520133910 69 187 0.0 2.0 0.00 2.34 0.06 91 1011.2
20240520133404 69 182 0.0 3.0 0.00 2.34 0.06 93 1011.2
20240520132859 68 182 1.0 3.0 0.00 2.34 0.06 93 1011.1
20240520131846 66 183 0.0 2.0 0.00 2.34 0.06 94 1011.0
20240520131340 66 181 0.0 2.0 0.00 2.34 0.06 94 1010.9
20240520130327 65 181 0.0 2.0 0.00 2.34 0.06 94 1011.0
20240520125821 64 181 0.0 2.0 0.00 2.34 0.06 94 1011.0
20240520125316 64 182 0.0 0.0 0.00 2.34 0.06 94 1011.0
20240520124809 64 182 0.0 1.0 0.00 2.34 0.06 94 1011.0
20240520124303 64 182 0.0 1.0 0.00 2.34 0.06 94 1010.9
20240520123252 63 171 0.0 0.0 0.00 2.34 0.06 94 1010.6
20240520122746 63 171 0.0 0.0 0.00 2.34 0.06 94 1010.5
20240520122240 63 171 0.0 0.0 0.00 2.34 0.06 94 1010.6
20240520121734 63 171 0.0 0.0 0.00 2.34 0.06 94 1010.5
20240520121228 63 172 0.0 1.0 0.00 2.34 0.06 94 1010.4
20240520120721 63 172 0.0 1.0 0.00 2.34 0.06 94 1010.5
20240520115710 62 172 0.0 1.0 0.00 2.34 0.06 93 1010.4
20240520115204 62 172 1.0 5.0 0.00 2.34 0.06 93 1010.2
20240520114658 62 171 2.0 5.0 0.00 2.34 0.06 93 1010.3
20240520114152 62 155 1.0 5.0 0.00 2.34 0.06 93 1010.3
20240520113144 62 158 1.0 5.0 0.00 2.34 0.06 93 1010.1
20240520112633 62 155 1.0 5.0 0.00 2.34 0.06 93 1010.1
20240520112130 62 158 1.0 3.0 0.00 2.34 0.06 93 1009.8
20240520111621 63 137 1.0 7.0 0.00 2.34 0.06 93 1009.7
20240520111116 63 167 1.0 7.0 0.00 2.34 0.06 93 1009.7
20240520110610 63 146 2.0 8.0 0.00 2.34 0.06 93 1009.6
20240520105557 63 121 3.0 9.0 0.00 2.34 0.06 93 1009.4
20240520105052 63 153 3.0 9.0 0.00 2.34 0.06 94 1009.3
20240520104546 63 156 3.0 9.0 0.00 2.34 0.06 94 1009.1
20240520104039 63 170 4.0 9.0 0.00 2.34 0.06 94 1009.1
20240520103534 63 163 3.0 9.0 0.00 2.34 0.06 94 1009.0
20240520103029 62 134 3.0 9.0 0.00 2.34 0.06 94 1008.9
20240520102522 62 154 2.0 9.0 0.00 2.34 0.06 94 1008.8
20240520102016 62 89 2.0 7.0 0.00 2.34 0.06 95 1008.7
20240520101510 62 167 2.0 7.0 0.00 2.34 0.06 95 1008.5